Date String (YYYY-MM-DD hh:mm:ss) UTC,Instrument flags,absolute air pressure of the measurement (hPa),sample flow rate (lpm),inlet stack bypass flow (lpm),air temperature of the measurement (°C),ambient temperature measured by the external sensor (°C),aerosol sample conditioner tube jacket temperature (°C),OPC LED temperature (°C),internal box temperature (°C),relative humidity of the measurement (%),span deviation,mass concentration of particles derived from Lorenz-Mie calculation of OPC scattering (μg/m³),mass concentration of particles derived from Lorenz-Mie calculation of OPC scattering (μg/m³),mass concentration of particles derived from Lorenz-Mie calculation of OPC scattering (μg/m³)
DateTimeUTC,F1_M11,P_M11,Q1_M11,Q2_M11,T1_M11,T2_M11,T3_M11,T4_M11,T5_M11,U1_M11,ZSPAN_M11,X0_M11,X2_M11,X1_M11
2024-01-27 16:00:00,SystemResetWarning,0837.0,4.99,000.00,019.6,019.0,000.0,027.8,021.0,15.5,0000.0,0002.95,0001.86,0001.68
2024-01-27 16:01:00,SystemResetWarning,0836.9,5.00,000.00,019.6,019.0,000.0,027.8,021.0,16.0,0000.0,0003.25,0001.88,0001.68
2024-01-27 16:02:00,SystemResetWarning,0837.0,5.01,000.00,019.6,019.1,000.0,027.8,021.0,15.5,0000.0,0003.35,0001.88,0001.68
2024-01-27 16:03:00,SystemResetWarning,0837.0,5.00,000.00,019.6,019.1,000.0,027.8,021.1,16.0,0000.0,0003.33,0001.88,0001.69
2024-01-27 16:04:00,SystemResetWarning,0837.0,5.00,000.00,019.6,019.1,000.0,027.8,021.1,15.7,0000.0,0003.31,0001.88,0001.69
2024-01-27 16:05:00,SystemResetWarning,0837.0,5.00,000.00,019.6,019.1,000.0,027.8,021.1,15.3,0000.0,0003.20,0001.85,0001.70
2024-01-27 16:06:00,SystemResetWarning,0837.0,5.00,000.00,019.7,019.1,000.0,027.9,021.1,15.3,0000.0,0003.15,0001.87,0001.71
2024-01-27 16:07:00,SystemResetWarning,0837.0,5.00,000.00,019.7,019.1,000.0,027.9,021.1,15.4,0000.0,0002.64,0001.86,0001.72
2024-01-27 16:08:00,SystemResetWarning,0837.0,5.00,000.00,019.7,019.1,000.0,027.9,021.2,15.6,0000.0,0002.64,0001.87,0001.71
2024-01-27 16:09:00,SystemResetWarning,0837.0,5.00,000.00,019.7,019.2,000.0,027.9,021.2,15.6,0000.0,0002.51,0001.84,0001.72
2024-01-27 16:10:00,SystemResetWarning,0837.0,5.00,000.00,019.7,019.2,000.0,027.9,021.2,15.7,0000.0,0002.59,0001.88,0001.74
2024-01-27 16:11:00,SystemResetWarning,0837.0,5.00,000.00,019.7,019.2,000.0,027.9,021.2,15.6,0000.0,0002.63,0001.90,0001.75
2024-01-27 16:12:00,SystemResetWarning,0837.0,4.99,000.00,019.7,019.2,000.0,027.9,021.2,15.9,0000.0,0002.55,0001.92,0001.79
2024-01-27 16:13:00,SystemResetWarning,0837.0,4.99,000.00,019.8,019.2,000.0,028.0,021.2,15.7,0000.0,0002.33,0001.95,0001.80
2024-01-27 16:14:00,SystemResetWarning,0837.0,5.00,000.00,019.8,019.2,000.0,028.0,021.2,15.3,0000.0,0002.41,0001.99,0001.82
2024-01-27 16:15:00,SystemResetWarning,0837.0,5.00,000.00,019.8,019.2,000.0,028.0,021.3,15.6,0000.0,0002.45,0002.05,0001.87
2024-01-27 16:16:00,SystemResetWarning,0837.0,5.00,000.00,019.8,019.2,000.0,028.0,021.3,15.5,0000.0,0002.66,0002.15,0001.92
2024-01-27 16:17:00,SystemResetWarning,0837.0,5.01,000.00,019.8,019.3,000.0,028.0,021.3,14.8,0000.0,0003.16,0002.21,0001.99
2024-01-27 16:18:00,SystemResetWarning,0837.1,5.01,000.00,019.8,019.3,000.0,028.0,021.3,15.1,0000.0,0003.31,0002.31,0002.08
2024-01-27 16:19:00,SystemResetWarning,0837.1,5.00,000.00,019.8,019.3,000.0,028.0,021.3,14.8,0000.0,0003.44,0002.39,0002.14
2024-01-27 16:20:00,SystemResetWarning,0837.2,5.01,000.00,019.9,019.3,000.0,028.0,021.3,14.9,0000.0,0003.65,0002.51,0002.23
2024-01-27 16:21:00,SystemResetWarning,0837.2,5.00,000.00,019.9,019.3,000.0,028.1,021.3,14.7,0000.0,0003.72,0002.60,0002.32
2024-01-27 16:22:00,SystemResetWarning,0837.2,5.00,000.00,019.9,019.3,000.0,028.1,021.4,14.8,0000.0,0003.80,0002.67,0002.39
2024-01-27 16:23:00,SystemResetWarning,0837.2,4.99,000.00,019.9,019.3,000.0,028.1,021.4,14.8,0000.0,0003.99,0002.80,0002.49
2024-01-27 16:24:00,SystemResetWarning,0837.2,4.99,000.00,019.9,019.4,000.0,028.1,021.4,15.1,0000.0,0004.05,0002.87,0002.56
2024-01-27 16:25:00,SystemResetWarning,0837.2,5.00,000.00,019.9,019.4,000.0,028.1,021.4,15.1,0000.0,0004.36,0003.01,0002.67
2024-01-27 16:26:00,SystemResetWarning,0837.2,5.00,000.00,019.9,019.4,000.0,028.1,021.4,15.2,0000.0,0004.44,0003.08,0002.76
2024-01-27 16:27:00,SystemResetWarning,0837.2,5.00,000.00,020.0,019.4,000.0,028.2,021.4,15.6,0000.0,0004.46,0003.10,0002.82
2024-01-27 16:28:00,SystemResetWarning,0837.2,5.01,000.00,020.0,019.4,000.0,028.2,021.4,15.5,0000.0,0004.06,0003.13,0002.86
2024-01-27 16:29:00,SystemResetWarning,0837.2,5.00,000.00,020.0,019.4,000.0,028.2,021.5,15.5,0000.0,0004.03,0003.14,0002.89
2024-01-27 16:30:00,SystemResetWarning,0837.2,5.00,000.00,020.0,019.4,000.0,028.2,021.5,15.6,0000.0,0004.03,0003.16,0002.92
2024-01-27 16:31:00,SystemResetWarning,0837.2,5.00,000.00,020.0,019.5,000.0,028.2,021.5,15.7,0000.0,0003.95,0003.16,0002.96
2024-01-27 16:32:00,SystemResetWarning,0837.2,5.00,000.00,020.0,019.5,000.0,028.2,021.5,15.7,0000.0,0003.99,0003.17,0002.96
2024-01-27 16:33:00,SystemResetWarning,0837.2,4.99,000.00,020.1,019.5,000.0,028.2,021.6,16.0,0000.0,0003.97,0003.17,0002.96
2024-01-27 16:34:00,SystemResetWarning,0837.2,5.00,000.00,020.1,019.5,000.0,028.2,021.6,16.0,0000.0,0003.92,0003.17,0002.98
2024-01-27 16:35:00,SystemResetWarning,0837.2,4.99,000.00,020.1,019.5,000.0,028.3,021.6,16.0,0000.0,0004.01,0003.20,0003.01
2024-01-27 16:36:00,SystemResetWarning,0837.2,5.00,000.00,020.1,019.5,000.0,028.3,021.6,16.0,0000.0,0003.94,0003.20,0003.04
2024-01-27 16:37:00,SystemResetWarning,0837.2,5.00,000.00,020.1,019.6,000.0,028.3,021.6,16.0,0000.0,0004.03,0003.20,0003.03
2024-01-27 16:38:00,SystemResetWarning,0837.3,5.00,000.00,020.1,019.6,000.0,028.3,021.6,16.0,0000.0,0004.11,0003.22,0003.05
2024-01-27 16:39:00,SystemResetWarning,0837.2,5.01,000.00,020.1,019.6,000.0,028.3,021.6,16.3,0000.0,0004.76,0003.24,0003.07
2024-01-27 16:40:00,SystemResetWarning,0837.4,5.00,000.00,020.2,019.6,000.0,028.3,021.6,16.2,0000.0,0005.45,0003.24,0003.08
2024-01-27 16:41:00,SystemResetWarning,0837.3,5.00,000.00,020.2,019.6,000.0,028.4,021.7,16.1,0000.0,0005.51,0003.25,0003.08
2024-01-27 16:42:00,SystemResetWarning,0837.2,5.00,000.00,020.2,019.7,000.0,028.4,021.7,16.2,0000.0,0005.55,0003.26,0003.07
2024-01-27 16:43:00,SystemResetWarning,0837.2,5.01,000.00,020.2,019.7,000.0,028.4,021.7,16.0,0000.0,0005.56,0003.26,0003.06
2024-01-27 16:44:00,SystemResetWarning,0837.2,5.00,000.00,020.2,019.7,000.0,028.4,021.7,15.9,0000.0,0005.56,0003.26,0003.06
2024-01-27 16:45:00,SystemResetWarning,0837.2,4.99,000.00,020.2,019.7,000.0,028.4,021.8,16.3,0000.0,0005.61,0003.25,0003.02
2024-01-27 16:46:00,SystemResetWarning,0837.2,5.00,000.00,020.3,019.7,000.0,028.4,021.8,16.2,0000.0,0005.65,0003.24,0003.00
2024-01-27 16:47:00,SystemResetWarning,0837.2,5.00,000.00,020.3,019.7,000.0,028.5,021.8,15.9,0000.0,0006.26,0003.23,0002.96
2024-01-27 16:48:00,SystemResetWarning,0837.2,4.99,000.00,020.3,019.7,000.0,028.5,021.8,16.0,0000.0,0006.57,0003.22,0002.94
2024-01-27 16:49:00,SystemResetWarning,0837.2,5.00,000.00,020.3,019.8,000.0,028.5,021.8,15.6,0000.0,0006.56,0003.22,0002.92
2024-01-27 16:50:00,SystemResetWarning,0837.2,5.00,000.00,020.3,019.8,000.0,028.5,021.8,15.8,0000.0,0006.05,0003.20,0002.90
2024-01-27 16:51:00,SystemResetWarning,0837.3,5.00,000.00,020.4,019.8,000.0,028.5,021.8,16.3,0000.0,0005.43,0003.19,0002.87
2024-01-27 16:52:00,SystemResetWarning,0837.4,5.00,000.00,020.4,019.8,000.0,028.5,021.8,16.0,0000.0,0005.42,0003.20,0002.88
2024-01-27 16:53:00,SystemResetWarning,0837.2,5.00,000.00,020.4,019.8,000.0,028.5,021.9,15.7,0000.0,0005.46,0003.20,0002.88
2024-01-27 16:54:00,SystemResetWarning,0837.3,5.00,000.00,020.4,019.8,000.0,028.6,021.9,15.9,0000.0,0005.62,0003.23,0002.90
2024-01-27 16:55:00,SystemResetWarning,0837.3,5.00,000.00,020.4,019.9,000.0,028.6,021.9,16.0,0000.0,0005.75,0003.25,0002.93
2024-01-27 16:56:00,SystemResetWarning,0837.4,4.99,000.00,020.4,019.9,000.0,028.6,021.9,16.2,0000.0,0005.77,0003.28,0002.98
2024-01-27 16:57:00,SystemResetWarning,0837.4,5.00,000.00,020.4,019.9,000.0,028.6,021.9,15.9,0000.0,0005.88,0003.29,0003.01
2024-01-27 16:58:00,SystemResetWarning,0837.5,5.00,000.00,020.5,019.9,000.0,028.6,022.0,16.0,0000.0,0006.51,0003.32,0003.07
2024-01-27 16:59:00,SystemResetWarning,0837.4,5.01,000.00,020.5,019.9,000.0,028.6,022.0,16.0,0000.0,0006.11,0003.34,0003.10
